Location: Unspecified
(49.8670°N, 0.0000°E)
Time: 16:57:54
(UTC+00:00)

S-56A Canister/Altair - Pass Details

Date: 21 June 2019
Orbit: 633 x 2499 km, 38.9° (Epoch: 17 August)

Event Time Altitude Azimuth Distance (km) Brightness Sun altitude
Rises 16:07:54 0° 226° (SW) 4,981 12.3 35.9°
Reaches altitude 10° 16:12:16 10° 216° (SW) 3,643 11.6 35.2°
Maximum altitude 16:19:03 25° 166° (SSE) 2,149 9.9 34.1°
Drops below altitude 10° 16:24:08 10° 113° (ESE) 2,650 9.9 33.3°
Sets 16:26:45 0° 99° (E) 3,391 10.3 32.8°
